FW0386 Weather Reports


Display with metric or nautical units.
time (UTC)temp
F
wind
direction
speed
MPH
gust
MPH
rain 1hr
in
rain 24hr
in
rain mn
in
humidity
%
barometer
mb
20260906053049 54 280 0.0 5.0 0.00 0.08 0.00 77 1026.0
20260906051524 53 243 0.0 4.0 0.00 0.08 0.00 79 1025.8
20260906050038 52 259 0.0 4.0 0.00 0.08 0.00 80 1025.7
20260906044554 52 281 0.0 2.0 0.00 0.08 0.00 80 1025.5
20260906043048 52 263 0.0 2.0 0.00 0.08 0.00 80 1025.4
20260906041501 52 281 0.0 3.0 0.00 0.08 0.00 80 1025.3
20260906040009 52 285 0.0 3.0 0.00 0.08 0.00 79 1025.3
20260906034545 52 256 0.0 2.0 0.00 0.09 0.00 79 1025.0
20260906033059 52 260 0.0 3.0 0.00 0.09 0.00 78 1025.0
20260906031526 53 276 0.0 2.0 0.00 0.09 0.00 77 1024.9
20260906030039 53 260 0.0 4.0 0.00 0.09 0.00 76 1024.7
20260906024535 53 274 0.0 3.0 0.00 0.09 0.00 76 1024.7
20260906023003 54 265 0.0 3.0 0.00 0.09 0.00 74 1024.5
20260906021507 55 259 0.0 3.0 0.00 0.09 0.00 73 1024.4
20260906020035 55 298 1.0 5.0 0.00 0.09 0.00 72 1024.3
20260906014546 56 293 1.0 4.0 0.00 0.09 0.00 71 1024.2
20260906013055 56 268 0.0 4.0 0.00 0.09 0.00 71 1024.1
20260906011603 56 274 0.0 4.0 0.00 0.09 0.00 70 1024.0
20260906010014 56 274 0.0 5.0 0.00 0.09 0.00 70 1023.9
20260906004522 56 266 0.0 5.0 0.00 0.09 0.00 70 1023.9
20260906003046 56 275 0.0 4.0 0.00 0.09 0.00 69 1023.8
20260906001502 57 285 0.0 4.0 0.00 0.09 0.00 69 1023.7
20260906000100 57 283 0.0 3.0 0.00 0.09 0.00 68 1023.6
20260905234505 58 278 0.0 5.0 0.00 0.09 0.00 67 1023.5
20260905233031 58 237 0.0 4.0 0.00 0.09 0.00 67 1023.4
20260905231517 58 264 0.0 3.0 0.00 0.09 0.00 66 1023.4
20260905230034 58 284 1.0 7.0 0.00 0.09 0.00 65 1023.2
20260905224511 59 319 1.0 4.0 0.00 0.09 0.00 65 1023.2
20260905223034 59 254 0.0 3.0 0.00 0.09 0.00 64 1023.1
20260905221550 60 284 0.0 5.0 0.00 0.09 0.00 63 1022.9
20260905220100 60 2 0.0 6.0 0.00 0.09 0.00 62 1022.9
20260905214515 61 276 1.0 6.0 0.00 0.09 0.09 63 1022.9
20260905213024 62 276 0.0 6.0 0.00 0.09 0.09 62 1022.7
20260905211545 62 281 1.0 5.0 0.00 0.09 0.09 63 1022.5
20260905210109 61 287 1.0 5.0 0.00 0.09 0.09 67 1022.3
20260905204509 58 268 0.0 0.0 0.00 0.09 0.09 73 1022.3
20260905203015 58 268 0.0 0.0 0.00 0.09 0.09 72 1022.1
20260905201539 59 268 0.0 0.0 0.00 0.09 0.09 71 1021.9
20260905200050 59 270 0.0 0.0 0.00 0.09 0.09 70 1021.6
20260905194559 60 270 0.0 1.0 0.00 0.09 0.09 69 1021.6
20260905193005 62 270 0.0 1.0 0.00 0.09 0.09 69 1021.3
20260905191521 63 271 0.0 2.0 0.00 0.09 0.09 68 1021.1
20260905190030 63 266 1.0 4.0 0.00 0.09 0.09 68 1021.0
20260905184547 64 276 0.0 2.0 0.00 0.09 0.09 67 1020.6
20260905183047 64 264 0.0 2.0 0.00 0.09 0.09 65 1020.1
20260905181601 65 276 0.0 3.0 0.00 0.09 0.09 64 1020.0
20260905180009 65 256 0.0 3.0 0.00 0.09 0.09 63 1019.8
20260905174533 66 248 0.0 3.0 0.00 0.09 0.09 63 1019.6
20260905173052 67 300 0.0 2.0 0.00 0.09 0.09 61 1019.4
20260905171607 68 276 0.0 8.0 0.00 0.09 0.09 59 1019.3
20260905170015 68 261 0.0 6.0 0.00 0.09 0.09 57 1019.2
20260905164527 69 290 2.0 9.0 0.00 0.09 0.09 55 1019.2
20260905163048 70 280 3.0 12.0 0.00 0.09 0.09 53 1019.0
20260905161553 71 287 6.0 12.0 0.00 0.09 0.09 52 1019.1
20260905160010 71 254 1.0 14.0 0.00 0.09 0.09 52 1018.8
20260905154513 72 281 2.0 11.0 0.00 0.09 0.09 50 1018.5
20260905153043 71 316 3.0 11.0 0.00 0.09 0.09 50 1018.7
20260905151601 71 297 4.0 14.0 0.00 0.09 0.09 50 1018.7
20260905150012 71 275 2.0 11.0 0.00 0.09 0.09 50 1018.5
20260905144524 71 252 2.0 12.0 0.00 0.09 0.09 50 1018.4
20260905143034 71 273 3.0 13.0 0.00 0.09 0.09 53 1018.5
20260905141539 70 250 4.0 14.0 0.00 0.09 0.09 52 1018.7
20260905140001 72 233 2.0 11.0 0.00 0.09 0.09 50 1018.6
20260905134601 70 269 6.0 17.0 0.00 0.09 0.09 51 1018.7
20260905133030 71 241 5.0 15.0 0.00 0.09 0.09 50 1018.7
20260905131602 71 259 4.0 14.0 0.00 0.09 0.09 52 1018.8
20260905130017 70 338 5.0 18.0 0.00 0.09 0.09 52 1018.9
20260905124511 72 274 2.0 10.0 0.00 0.09 0.09 52 1018.7
20260905123037 72 243 4.0 11.0 0.00 0.09 0.09 52 1018.8
20260905121604 71 100 3.0 11.0 0.00 0.09 0.09 54 1018.9
20260905120006 70 235 4.0 14.0 0.00 0.09 0.09 53 1018.9
20260905114530 69 300 6.0 16.0 0.00 0.09 0.09 56 1019.0
20260905113037 69 310 4.0 11.0 0.00 0.09 0.09 57 1019.0
20260905111611 69 266 5.0 14.0 0.00 0.09 0.09 57 1019.1
20260905110009 69 239 4.0 12.0 0.00 0.09 0.09 57 1019.0
20260905104528 69 287 7.0 19.0 0.00 0.09 0.09 57 1019.0
20260905103019 68 257 4.0 14.0 0.00 0.09 0.09 61 1019.1
20260905101550 68 304 3.0 14.0 0.00 0.09 0.09 62 1019.0
20260905100108 67 217 3.0 9.0 0.00 0.09 0.09 65 1019.2
20260905094525 66 241 2.0 12.0 0.00 0.09 0.09 68 1019.2
20260905093030 67 284 1.0 10.0 0.00 0.09 0.09 69 1019.2
20260905091553 65 298 3.0 8.0 0.00 0.09 0.09 71 1019.2
20260905090055 64 230 2.0 11.0 0.00 0.09 0.09 73 1018.9
20260905084510 63 219 1.0 8.0 0.00 0.09 0.09 77 1018.9
20260905083016 62 271 1.0 6.0 0.00 0.09 0.09 82 1019.0
20260905081533 60 224 3.0 8.0 0.00 0.09 0.09 83 1019.0
20260905080057 60 307 1.0 6.0 0.00 0.09 0.09 85 1019.0
20260905074503 59 37 1.0 7.0 0.00 0.09 0.09 86 1018.6
20260905073032 58 194 0.0 6.0 0.00 0.09 0.09 88 1018.3
20260905071528 57 285 0.0 4.0 0.01 0.09 0.09 89 1018.0
20260905070048 57 267 0.0 4.0 0.02 0.09 0.09 89 1017.7
20260905064557 56 279 0.0 5.0 0.03 0.09 0.09 89 1017.9
20260905063006 56 237 2.0 11.0 0.04 0.09 0.09 88 1016.9
20260905061508 56 209 1.0 12.0 0.06 0.08 0.08 88 1017.9
20260905060030 57 238 3.0 9.0 0.06 0.06 0.06 88 1018.2
20260905054535 57 238 1.0 4.0 0.05 0.06 0.06 88 1018.2